Location: Catenanuova
(37.5690°N, 14.6870°E)
Time: 20:28:50
(UTC+02:00)

BlueWalker 3 - Pass Details

Date: 18 May 2025
Orbit: 460 x 472 km, 53.2° (Epoch: 15 June)

Event Time Altitude Azimuth Distance (km) Brightness Sun altitude
Rises 22:01:11 0° 324° (NW) 2,492 7.1 -19.2°
Reaches altitude 10° 22:04:28 10° 356° (N) 1,617 5.2 -19.7°
Maximum altitude 22:06:02 12° 22° (NNE) 1,481 4.6 -19.9°
Drops below altitude 10° 22:07:36 10° 47° (NE) 1,619 4.5 -20.1°
Enters shadow 22:08:03 - 53° (NE) 1,703 4.6 -20.2°
